Location: Goettingen
(51.5300°N, 9.9433°E)
Time: 06:01:13
(UTC+01:00)

ISS - Pass Details

Date: 12 November 2018
Orbit: 402 x 408 km, 51.6° (Epoch: 16 November)

Event Time Altitude Azimuth Distance (km) Brightness Sun altitude
Exits shadow 05:51:39 22° 223° (SW) 943 -2.3 -15.7°
Maximum altitude 05:51:57 22° 214° (SW) 933 -2.3 -15.6°
Drops below altitude 10° 05:54:35 10° 161° (SSE) 1,459 -0.6 -15.2°
Sets 05:56:56 0° 146° (SE) 2,316 0.7 -14.9°
